Location: Brno
(49.2000°N, 16.6330°E)
Time: 00:56:42
(UTC+02:00)

Vanguard 3 - Pass Details

Date: 02 August 2021
Orbit: 510 x 3260 km, 33.3° (Epoch: 19 September)

Event Time Altitude Azimuth Distance (km) Brightness Sun altitude
Rises 18:49:09 0° 233° (SW) 5,509 12.1 14.9°
Reaches altitude 10° 18:52:34 10° 227° (SW) 4,839 11.7 14.4°
Maximum altitude 19:06:10 42° 163° (SSE) 3,779 10.4 12.2°
Drops below altitude 10° 19:23:47 10° 102° (ESE) 6,188 11.0 9.4°
Sets 19:28:52 0° 96° (E) 7,127 11.3 8.6°
